Weather History for Angel Fire, NM

Change the Weather History Date:

Friday, November 1, 2013

  Actual Average (KSKX) Record (KSKX)
Temperature  
Mean Temperature 30 °F -  
Max Temperature 43 °F 53 °F 68 °F (1999)
Min Temperature 18 °F 23 °F 19 °F (1996)
Degree Days  
Heating Degree Days 34    
Moisture  
Dew Point 22 °F    
Average Humidity 75    
Maximum Humidity 93    
Minimum Humidity 46    
Precipitation  
Precipitation 0.00 in - - ()
Sea Level Pressure  
Sea Level Pressure 30.22 in    
Wind  
Wind Speed 3 mph (WSW)    
Max Wind Speed 20 mph    
Max Gust Speed 25 mph    
Visibility 10 miles    
Events      
Averages and records for this station are not official NWS values.
T = Trace of Precipitation, MM = Missing Value Source: NWS Daily Summary

Daily Weather History Graph

Daily Weather History Graph

Search for Another Location

Airport:

Trip Planner

Search our weather history database for the weather conditions in past years. The results will help you decide how hot, cold, wet, or windy it might be!

Date:

Astronomy

Nov. 01, 2013 Rise Set
Actual Time 7:24 AM MDT 6:04 PM MDT
Civil Twilight 6:57 AM MDT 6:30 PM MDT
Nautical Twilight 6:27 AM MDT 7:01 PM MDT
Astronomical Twilight 5:57 AM MDT 7:31 PM MDT
Moon 5:22 AM MDT 4:56 PM MDT
Length of Visible Light 11h 33m
Length of Day
10h 39m
Waning Crescent, 4% of the Moon is Illuminated
Nov 1
Waning Crescent
Nov 3
New
Nov 9
First Quarter
Nov 17
Full
Nov 25
Last Quarter

Hourly Weather History & Observations

Time (MDT) Temp. Windchill Dew Point Humidity Pressure Visibility Wind Dir Wind Speed Gust Speed Precip Events Conditions
12:15 AM 28.2 °F 24.4 °F 23.4 °F 82% 30.08 in 10.0 mi NW 3.5 mph - N/A   Clear
12:35 AM 28.0 °F - 23.0 °F 81% 30.09 in 10.0 mi Calm Calm - N/A   Clear
12:55 AM 26.4 °F - 22.6 °F 86% 30.10 in 10.0 mi Calm Calm - N/A   Clear
1:15 AM 24.8 °F - 21.0 °F 86% 30.10 in 10.0 mi Calm Calm - N/A   Clear
1:35 AM 23.2 °F - 20.3 °F 89% 30.11 in 10.0 mi Calm Calm - N/A   Clear
1:55 AM 21.6 °F - 19.8 °F 93% 30.11 in 10.0 mi Calm Calm - N/A   Clear
2:15 AM 21.9 °F - 19.8 °F 91% 30.12 in 10.0 mi Calm Calm - N/A   Clear
2:35 AM 21.2 °F - 18.7 °F 90% 30.11 in 10.0 mi Calm Calm - N/A   Clear
2:55 AM 22.3 °F 17.6 °F 20.1 °F 91% 30.11 in 10.0 mi WSW 3.5 mph - N/A   Clear
3:15 AM 20.1 °F - 17.8 °F 91% 30.12 in 10.0 mi Calm Calm - N/A   Clear
3:35 AM 19.6 °F - 17.6 °F 92% 30.12 in 10.0 mi Calm Calm - N/A   Clear
3:55 AM 19.2 °F - 16.9 °F 91% 30.12 in 10.0 mi Calm Calm - N/A   Clear
4:15 AM 20.1 °F - 17.6 °F 90% 30.12 in 10.0 mi Calm Calm - N/A   Clear
4:35 AM 20.7 °F - 18.3 °F 91% 30.12 in 10.0 mi Calm Calm - N/A   Clear
4:55 AM 19.4 °F - 17.1 °F 91% 30.13 in 10.0 mi Calm Calm - N/A   Clear
5:15 AM 18.3 °F - 16.3 °F 92% 30.14 in 10.0 mi Calm Calm - N/A   Clear
5:35 AM 19.6 °F 14.5 °F 16.9 °F 89% 30.14 in 10.0 mi SE 3.5 mph - N/A   Clear
5:55 AM 19.4 °F 12.8 °F 17.1 °F 91% 30.14 in 10.0 mi West 4.6 mph - N/A   Clear
6:15 AM 19.6 °F - 17.1 °F 90% 30.15 in 10.0 mi Calm Calm - N/A   Clear
6:35 AM 21.7 °F - 17.4 °F 83% 30.16 in 10.0 mi Calm Calm - N/A   Clear
6:55 AM 18.3 °F - 16.0 °F 91% 30.17 in 10.0 mi Calm Calm - N/A   Clear
7:15 AM 18.7 °F - 16.3 °F 91% 30.17 in 10.0 mi Calm Calm - N/A   Clear
7:35 AM 19.8 °F - 16.9 °F 89% 30.18 in 10.0 mi Calm Calm - N/A   Clear
7:55 AM 18.3 °F 13.1 °F 15.8 °F 90% 30.18 in 10.0 mi WSW 3.5 mph - N/A   Clear
8:15 AM 21.0 °F - 18.3 °F 89% 30.20 in 10.0 mi Calm Calm - N/A   Clear
8:35 AM 24.1 °F - 20.3 °F 85% 30.22 in 10.0 mi Calm Calm - N/A   Clear
8:55 AM 25.9 °F 21.7 °F 21.4 °F 83% 30.23 in 10.0 mi SSE 3.5 mph - N/A   Clear
9:15 AM 28.0 °F - 22.5 °F 80% 30.23 in 10.0 mi Calm Calm - N/A   Clear
9:35 AM 30.2 °F - 23.2 °F 75% 30.23 in 10.0 mi Calm Calm - N/A   Clear
9:55 AM 33.8 °F 30.8 °F 22.8 °F 64% 30.23 in 10.0 mi SW 3.5 mph - N/A   Clear
10:15 AM 35.8 °F - 23.2 °F 60% 30.23 in 10.0 mi Calm Calm - N/A   Clear
10:35 AM 37.4 °F 31.4 °F 22.8 °F 56% 30.23 in 10.0 mi SSW 8.1 mph - N/A   Clear
10:55 AM 37.8 °F 32.5 °F 22.3 °F 54% 30.23 in 10.0 mi SW 6.9 mph - N/A   Clear
11:15 AM 38.7 °F 34.3 °F 22.1 °F 51% 30.23 in 10.0 mi West 5.8 mph - N/A   Clear
11:35 AM 39.0 °F 31.4 °F 23.9 °F 55% 30.23 in 10.0 mi West 12.7 mph - N/A   Clear
11:55 AM 38.8 °F 32.1 °F 23.0 °F 53% 30.23 in 10.0 mi West 10.4 mph - N/A   Clear
12:15 PM 39.6 °F 30.3 °F 23.5 °F 53% 30.22 in 10.0 mi West 18.4 mph 23.0 mph N/A   Clear
12:35 PM 40.1 °F 30.7 °F 23.0 °F 51% 30.22 in 10.0 mi West 19.6 mph - N/A   Clear
12:55 PM 40.5 °F 31.5 °F 23.0 °F 50% 30.22 in 10.0 mi West 18.4 mph 25.3 mph N/A   Clear
1:15 PM 40.8 °F 32.3 °F 22.6 °F 48% 30.20 in 10.0 mi West 17.3 mph 23.0 mph N/A   Clear
1:35 PM 41.9 °F 33.4 °F 24.4 °F 50% 30.20 in 10.0 mi WSW 18.4 mph 25.3 mph N/A   Clear
1:55 PM 42.1 °F 34.2 °F 24.4 °F 50% 30.20 in 10.0 mi West 16.1 mph - N/A   Clear
2:15 PM 42.6 °F 36.8 °F 25.5 °F 51% 30.21 in 10.0 mi West 10.4 mph - N/A   Clear
3:55 PM 42.8 °F 35.1 °F 23.4 °F 46% 30.22 in 10.0 mi West 16.1 mph 21.9 mph N/A   Clear
4:15 PM 43.2 °F 35.6 °F 24.1 °F 47% 30.22 in 10.0 mi West 16.1 mph 20.7 mph N/A   Clear
4:35 PM 43.0 °F 36.4 °F 23.9 °F 47% 30.23 in 10.0 mi West 12.7 mph - N/A   Clear
4:55 PM 42.4 °F 35.3 °F 23.9 °F 48% 30.24 in 10.0 mi West 13.8 mph 19.6 mph N/A   Clear
5:15 PM 41.9 °F 35.4 °F 23.5 °F 48% 30.25 in 10.0 mi West 11.5 mph - N/A   Clear
5:35 PM 41.0 °F 34.3 °F 23.5 °F 50% 30.25 in 10.0 mi West 11.5 mph 16.1 mph N/A   Clear
5:55 PM 37.8 °F 31.3 °F 24.1 °F 58% 30.25 in 10.0 mi West 9.2 mph - N/A   Clear
6:15 PM 34.2 °F 28.2 °F 25.3 °F 70% 30.26 in 10.0 mi WNW 6.9 mph - N/A   Clear
6:35 PM 32.2 °F - 25.7 °F 77% 30.27 in 10.0 mi Calm Calm - N/A   Clear
6:55 PM 33.6 °F - 23.9 °F 68% 30.28 in 10.0 mi Calm Calm - N/A   Clear
7:15 PM 32.7 °F - 24.3 °F 71% 30.29 in 10.0 mi Calm Calm - N/A   Clear
7:35 PM 30.7 °F 26.0 °F 24.4 °F 77% 30.30 in 10.0 mi ESE 4.6 mph - N/A   Clear
7:55 PM 31.1 °F 24.5 °F 24.8 °F 77% 30.31 in 10.0 mi SE 6.9 mph - N/A   Clear
8:15 PM 29.8 °F - 24.4 °F 80% 30.32 in 10.0 mi Calm Calm - N/A   Clear
8:35 PM 30.2 °F 23.4 °F 24.4 °F 79% 30.32 in 10.0 mi South 6.9 mph - N/A   Clear
8:55 PM 29.1 °F 21.3 °F 24.4 °F 83% 30.32 in 10.0 mi South 8.1 mph - N/A   Clear
9:15 PM 27.9 °F - 23.9 °F 85% 30.33 in 10.0 mi Calm Calm - N/A   Clear
9:35 PM 26.6 °F - 23.5 °F 88% 30.33 in 10.0 mi Calm Calm - N/A   Clear
9:55 PM 27.3 °F - 23.7 °F 86% 30.34 in 10.0 mi Calm Calm - N/A   Clear
10:15 PM 27.5 °F 23.6 °F 23.7 °F 86% 30.35 in 10.0 mi WSW 3.5 mph - N/A   Clear
10:35 PM 26.6 °F - 23.4 °F 88% 30.36 in 10.0 mi Calm Calm - N/A   Clear
10:55 PM 26.8 °F - 23.5 °F 88% 30.37 in 10.0 mi Calm Calm - N/A   Clear
11:15 PM 24.1 °F - 21.7 °F 91% 30.37 in 10.0 mi Calm Calm - N/A   Clear
11:35 PM 23.9 °F - 21.6 °F 91% 30.38 in 10.0 mi Calm Calm - N/A   Clear
11:55 PM 24.3 °F - 21.9 °F 91% 30.38 in 10.0 mi Calm Calm - N/A   Clear